Regional Weather Roundup
Issued by NWS

Home | Current Version | Previous Version | Text Only | Print | Product List | Glossary Off
Versions: 1 2 3 4 5 6 7 8 9 10 11 12 13 14 15 16 17 18 19 20 21 22 23 24 25 26 27 28 29 30 31 32 33 34 35 36 37 38 39 40 41 42 43 44 45 46 47 48 49 50

000
ASUS43 KBIS 101710
RWRND

NORTH DAKOTA REGIONAL WEATHER ROUNDUP
NATIONAL WEATHER SERVICE BISMARCK ND
1100 AM CST SUN DEC 10 2017

NOTE: "FAIR" INDICATES FEW OR NO CLOUDS BELOW 12,000 FEET WITH NO
SIGNIFICANT WEATHER AND/OR OBSTRUCTIONS TO VISIBILITY.


NDZ001>003-009>011-017-101800-
NORTHWEST NORTH DAKOTA

CITY           SKY/WX    TMP DP  RH WIND       PRES   REMARKS
WILLISTON      CLOUDY    40  19  43 SW5       30.09R
MINOT          PTSUNNY   41  24  51 W15       30.01R
MINOT AFB      CLOUDY    40  24  54 NW16      29.99R
$$

NDZ018>021-031>035-040>046-101800-
SOUTHWEST NORTH DAKOTA

CITY           SKY/WX    TMP DP  RH WIND       PRES   REMARKS
BISMARCK       CLOUDY    42  24  49 W9        30.07R
DICKINSON      SUNNY     41  20  43 W21       30.07S
GARRISON         N/A     38  22  52 NW10      30.03R
HETTINGER ARPT SUNNY     45  14  28 W23       30.14R
$$

NDZ004>008-012>016-024-026-027-054-101800-
NORTHEAST NORTH DAKOTA

CITY           SKY/WX    TMP DP  RH WIND       PRES   REMARKS
GRAND FORKS    CLOUDY    23  18  81 N5        30.06R WCI  17
GRND FRKS AFB  MOSUNNY   24  17  76 N3        30.05S
DEVILS LAKE    CLOUDY    28  22  78 SE3       30.01R
$$

NDZ022-023-025-028>030-036>039-047>053-101800-
SOUTHEAST NORTH DAKOTA

CITY           SKY/WX    TMP DP  RH WIND       PRES   REMARKS
FARGO          CLOUDY    24  19  81 N9        30.07R WCI  14
JAMESTOWN      CLOUDY    32  26  78 NW6       30.02R
$$





USA.gov is the U.S. government's official web portal to all federal, state and local government web resources and services.